This demonstration page uses our WeatherBlox Daily Observations layout. Learn more.

Left ArrowRight Arrow

Hourly Observations for December 12, 2018

Temp ( °F °C ) Dew Point ( °F °C ) Humidity (%) Winds ( mph kmh ) Pressure ( in mb ) Visibility ( mi km ) Precip ( " mm )
12:57 am 00:57 Clear 26 -3.3 25 -3.9 96 96 WSW 10 17 29.96 1014 10 16 0.00 0.00
1:57 am 01:57 Clear 24 -4.4 23 -5 96 96 WSW 10 17 29.94 1014 10 16 0.00 0.00
2:57 am 02:57 Clear 26 -3.3 24 -4.4 92 92 W 7 11 29.93 1014 10 16 0.00 0.00
3:57 am 03:57 Clear 26 -3.3 23 -5 88 88 WNW 6 9 29.92 1013 10 16 0.00 0.00
4:57 am 04:57 Clear 23 -5 21 -6.1 92 92 SW 8 13 29.91 1013 10 16 0.00 0.00
5:57 am 05:57 Clear with Mist and Fog 22 -5.6 20 -6.7 92 92 SW 8 13 29.90 1013 6 10 0.00 0.00
6:57 am 06:57 Clear 21 -6.1 19 -7.2 92 92 WSW 8 13 29.89 1012 10 16 0.00 0.00
7:57 am 07:57 Sunny 20 -6.7 18 -7.8 92 92 SW 7 11 29.88 1012 10 16 0.00 0.00
8:57 am 08:57 Sunny 25 -3.9 21 -6.1 85 85 SSW 6 9 29.86 1011 10 16 0.00 0.00
9:57 am 09:57 Sunny 29 -1.7 23 -5 78 78 SSW 12 19 29.83 1010 10 16 0.00 0.00
10:57 am 10:57 Sunny 35 1.7 25 -3.9 67 67 SSW 18 30 29.80 1009 10 16 0.00 0.00
11:57 am 11:57 Sunny 40 4.4 26 -3.3 58 58 SW 18 30 29.76 1008 10 16 0.00 0.00
12:57 pm 12:57 Sunny 41 5 27 -2.8 57 57 SW 18 30 29.73 1007 10 16 0.00 0.00
1:57 pm 13:57 Sunny 41 5 28 -2.2 60 60 SW 15 24 29.71 1006 10 16 0.00 0.00
2:57 pm 14:57 Sunny 41 5 29 -1.7 62 62 SSW 9 15 29.70 1006 10 16 0.00 0.00
3:57 pm 15:57 Sunny 40 4.4 30 -1.1 68 68 SSW 8 13 29.71 1006 10 16 0.00 0.00
4:57 pm 16:57 Sunny 37 2.8 30 -1.1 76 76 SSW 8 13 29.74 1007 10 16 0.00 0.00
5:57 pm 17:57 Clear 34 1.1 28 -2.2 79 79 SSW 6 9 29.75 1007 10 16 0.00 0.00
6:57 pm 18:57 Clear 34 1.1 28 -2.2 79 79 SW 7 11 29.75 1008 10 16 0.00 0.00
7:57 pm 19:57 Clear 32 0 27 -2.8 82 82 W 3 6 29.77 1008 10 16 0.00 0.00
8:57 pm 20:57 Clear 32 0 26 -3.3 79 79 WNW 7 11 29.77 1008 10 16 0.00 0.00
9:57 pm 21:57 Clear 35 1.7 27 -2.8 72 72 W 6 9 29.79 1009 10 16 0.00 0.00
10:57 pm 22:57 Clear 36 2.2 29 -1.7 76 76 NW 14 22 29.80 1009 10 16 0.00 0.00
11:57 pm 23:57 Clear 35 1.7 30 -1.1 82 82 NNW 13 20 29.82 1010 10 16 0.00 0.00

Powered by AerisWeather